Hourly Data Report for June 06, 2021

WESTERN HEAD
NOVA SCOTIA
Current Station Operator: ECCC - MSC

43°59'24.070" N
64°39'51.008" W
10.10 m
8206240
71411
WWE

Download Data

Hourly Data (June 2021)
Hourly Data Report for June 6, 2021
TIME
LST
Temp Definition
°C
Dew Point Definition
°C
Rel Hum Definition
%
Precip. Amount Definition
mm

Wind Dir Definition
10's deg

Wind Spd Definition
km/h
Visibility Definition
km
Stn Press Definition
kPa
Hmdx Definition


Wind Chill Definition


Weather Definition


00:00 8.9 LegendMM LegendMM 0.0 20 24   100.71     LegendNANA
01:00 8.7 LegendMM LegendMM 0.0 22 16   100.69     LegendNANA
02:00 8.4 LegendMM LegendMM 0.0 22 14   100.66     LegendNANA
03:00 8.6 LegendMM LegendMM 0.0 23 13   100.68     LegendNANA
04:00 9.9 LegendMM LegendMM 0.0 22 12   100.73     LegendNANA
05:00 11.8 LegendMM LegendMM 0.0 25 7   100.79     LegendNANA
06:00 19.0 LegendMM LegendMM 0.0 29 11   100.83     LegendNANA
07:00 21.7 17.4 76 0.0 29 18   100.91 27   LegendNANA
08:00 23.9 17.9 69 0.0 30 17   100.99 30   LegendNANA
09:00 26.4 18.3 61 0.0 32 10   101.02 33   LegendNANA
10:00 20.3 15.5 74 0.0 18 5   101.09 25   LegendNANA
11:00 16.8 13.3 80 0.0 17 6   101.18     LegendNANA
12:00 15.0 13.1 89 0.0 21 13   101.18     LegendNANA
13:00 17.1 12.9 76 0.0 19 11   101.21     LegendNANA
14:00 17.0 13.0 78 0.0 10 6   101.27     LegendNANA
15:00 17.5 12.5 72 0.0 6 5   101.28     LegendNANA
16:00 16.5 11.6 73 0.0 11 9   101.27     LegendNANA
17:00 17.0 12.0 72 0.0 6 6   101.28     LegendNANA
18:00 16.3 12.7 79 0.0 1 7   101.33     LegendNANA
19:00 14.9 12.1 84 0.0 5 5   101.35     LegendNANA
20:00 12.8 12.6 99 0.0 4 4   101.41     LegendNANA
21:00 11.8 11.8 100 0.0 33 3   101.46     LegendNANA
22:00 11.8 LegendMM LegendMM 0.0 25 7   101.49     LegendNANA
23:00 11.5 LegendMM LegendMM 0.0 21 5   101.52     LegendNANA

Notes on Data Quality.

Legend

  • E = Estimated
  • M = Missing
  • NA = Not Available*
  • [empty] = Indicates an unobserved value
Date modified: